Weather History for Fort Leonard Wood, MO

Change the Weather History Date:

Sunday, March 23, 2014

  Actual Average Record
Temperature  
Mean Temperature 36 °F -  
Max Temperature 44 °F 56 °F 75 °F (2009)
Min Temperature 27 °F 39 °F 27 °F (2014)
Degree Days  
Heating Degree Days 30    
Moisture  
Dew Point 12 °F    
Average Humidity 40    
Maximum Humidity 61    
Minimum Humidity 24    
Precipitation  
Precipitation 0.00 in - - ()
Sea Level Pressure  
Sea Level Pressure 30.39 in    
Wind  
Wind Speed 10 mph (NNE)    
Max Wind Speed 16 mph    
Max Gust Speed 23 mph    
Visibility 10 miles    
Events      
Averages and records for this station are not official NWS values.
T = Trace of Precipitation, MM = Missing Value Source: NWS Daily Summary

Daily Weather History Graph

Daily Weather History Graph

Search for Another Location

Airport:

Trip Planner

Search our weather history database for the weather conditions in past years. The results will help you decide how hot, cold, wet, or windy it might be!

Date:

Astronomy

Mar. 23, 2014 Rise Set
Actual Time 7:07 AM CDT 7:23 PM CDT
Civil Twilight 6:41 AM CDT 7:49 PM CDT
Nautical Twilight 6:10 AM CDT 8:20 PM CDT
Astronomical Twilight 5:39 AM CDT 8:51 PM CDT
Moon 1:35 AM CDT (3/23) 11:54 AM CDT (3/23)
Length of Visible Light 13h 08m
Length of Day
12h 15m
Waning Gibbous, 54% of the Moon is Illuminated
Mar 23
Waning Gibbous
Mar 23
Last Quarter
Mar 30
New
Apr 7
First Quarter
Apr 15
Full

Hourly Weather History & Observations

Time (CDT) Temp. Windchill Dew Point Humidity Pressure Visibility Wind Dir Wind Speed Gust Speed Precip Events Conditions
12:58 AM 37.6 °F 31.6 °F 19.2 °F 48% 30.32 in 10.0 mi NNE 8.1 mph - N/A   Overcast
1:58 AM 35.6 °F 27.5 °F 18.0 °F 49% 30.35 in 10.0 mi North 11.5 mph 20.7 mph N/A   Overcast
2:58 AM 34.0 °F 24.6 °F 17.8 °F 52% 30.36 in 10.0 mi North 13.8 mph 21.9 mph N/A   Overcast
3:58 AM 32.2 °F 22.3 °F 16.7 °F 53% 30.37 in 10.0 mi North 13.8 mph - N/A   Overcast
4:58 AM 30.2 °F 18.9 °F 14.9 °F 53% 30.38 in 10.0 mi North 16.1 mph 23.0 mph N/A   Overcast
5:58 AM 28.8 °F 18.4 °F 10.2 °F 46% 30.39 in 10.0 mi North 12.7 mph 19.6 mph N/A   Mostly Cloudy
6:58 AM 27.9 °F 19.8 °F 12.7 °F 53% 30.43 in 10.0 mi North 8.1 mph - N/A   Mostly Cloudy
7:58 AM 28.2 °F 19.5 °F 16.3 °F 61% 30.43 in 10.0 mi North 9.2 mph - N/A   Clear
8:58 AM 29.5 °F 19.3 °F 14.5 °F 54% 30.46 in 10.0 mi North 12.7 mph - N/A   Clear
9:58 AM 31.5 °F 22.3 °F 13.8 °F 48% 30.47 in 10.0 mi NNE 11.5 mph - N/A   Clear
10:58 AM 34.2 °F 26.2 °F 13.1 °F 42% 30.47 in 10.0 mi North 10.4 mph 17.3 mph N/A   Clear
11:58 AM 36.3 °F 30.1 °F 12.9 °F 38% 30.45 in 10.0 mi North 8.1 mph 17.3 mph N/A   Clear
12:55 PM 39.2 °F 31.6 °F 10.4 °F 31% 30.41 in 10.0 mi North 12.7 mph - N/A   Clear
12:58 PM 38.7 °F 31.8 °F 11.1 °F 32% 30.44 in 10.0 mi North 10.4 mph - N/A   Clear
1:58 PM 40.3 °F 33.9 °F 7.9 °F 26% 30.41 in 10.0 mi NNE 10.4 mph - N/A   Clear
2:58 PM 41.9 °F 36.3 °F 8.1 °F 25% 30.39 in 10.0 mi NNE 9.2 mph - N/A   Clear
3:58 PM 44.1 °F 41.5 °F 8.8 °F 24% 30.36 in 10.0 mi Variable 4.6 mph - N/A   Clear
4:58 PM 43.3 °F 37.7 °F 8.8 °F 24% 30.35 in 10.0 mi North 10.4 mph - N/A   Clear
5:58 PM 43.3 °F 37.7 °F 9.7 °F 25% 30.34 in 10.0 mi NNE 10.4 mph - N/A   Clear
6:58 PM 40.6 °F 37.5 °F 9.5 °F 28% 30.35 in 10.0 mi North 4.6 mph - N/A   Clear
7:58 PM 37.2 °F 34.7 °F 9.5 °F 32% 30.35 in 10.0 mi NNE 3.5 mph - N/A   Clear
8:58 PM 36.1 °F 33.5 °F 9.5 °F 33% 30.37 in 10.0 mi NNE 3.5 mph - N/A   Clear
9:58 PM 34.2 °F 30.0 °F 9.5 °F 36% 30.37 in 10.0 mi NE 4.6 mph - N/A   Clear
10:58 PM 33.1 °F 27.7 °F 10.2 °F 39% 30.35 in 10.0 mi ENE 5.8 mph - N/A   Clear
11:58 PM 31.6 °F 26.0 °F 10.2 °F 41% 30.35 in 10.0 mi East 5.8 mph - N/A   Clear